Location: Haieshausen
(51.8387°N, 9.9720°E)
Time: 03:08:50
(UTC+00:00)

Iridium 4 Rocket - Pass Details

Date: 14 July 2020
Orbit: 583 x 906 km, 86.9° (Epoch: 10 August)

Event Time Altitude Azimuth Distance (km) Brightness Sun altitude
Exits shadow 00:24:13 24° 193° (SSW) 1,709 4.7 -15.4°
Maximum altitude 00:27:44 73° 274° (W) 867 3.7 -15.3°
Drops below altitude 10° 00:33:02 10° 0° (N) 2,340 7.3 -15.1°
Sets 00:35:18 0° 3° (N) 3,221 8.4 -15.0°
